Time,TemperatureF,DewpointF,PressureIn,WindDirection,WindDirectionDegrees,WindSpeedMPH,WindSpeedGustMPH,Humidity,HourlyPrecipIn,Conditions,Clouds,dailyrainin,SoftwareType,DateUTC
2013-08-22 00:01:00,67.3,65.5,30.10,NW,316,0.0,0.0,94,0.00,,,0.00,meteohub,2013-08-22 04:01:00,
2013-08-22 00:02:00,67.5,65.7,30.10,NW,316,0.0,0.0,94,0.00,,,0.00,meteohub,2013-08-22 04:02:00,
2013-08-22 00:04:00,67.5,66.0,30.10,NW,316,0.0,0.0,95,0.00,,,0.00,meteohub,2013-08-22 04:04:00,
2013-08-22 00:09:00,67.3,65.5,30.10,NW,316,0.0,0.0,94,0.00,,,0.00,meteohub,2013-08-22 04:09:00,
2013-08-22 00:14:00,66.9,65.5,30.10,NW,316,0.0,0.0,95,0.00,,,0.00,meteohub,2013-08-22 04:14:00,
2013-08-22 00:19:00,66.9,65.5,30.10,NW,316,0.0,0.0,95,0.00,,,0.00,meteohub,2013-08-22 04:19:00,
2013-08-22 00:25:00,66.9,65.5,30.10,NW,316,0.0,0.0,95,0.00,,,0.00,meteohub,2013-08-22 04:25:00,
2013-08-22 00:30:00,66.7,65.3,30.10,NW,316,0.0,0.0,95,0.00,,,0.00,meteohub,2013-08-22 04:30:00,
2013-08-22 00:35:00,66.6,65.1,30.10,NW,316,0.0,0.0,95,0.00,,,0.00,meteohub,2013-08-22 04:35:00,
2013-08-22 00:41:00,66.4,64.9,30.10,NW,316,0.0,0.0,95,0.00,,,0.00,meteohub,2013-08-22 04:41:00,
2013-08-22 00:46:00,66.4,64.9,30.10,NW,316,0.0,0.0,95,0.00,,,0.00,meteohub,2013-08-22 04:46:00,
2013-08-22 00:51:00,66.0,64.6,30.11,NW,316,0.0,0.0,95,0.00,,,0.00,meteohub,2013-08-22 04:51:00,
2013-08-22 00:56:00,66.0,64.6,30.10,NW,316,0.0,0.0,95,0.00,,,0.00,meteohub,2013-08-22 04:56:00,
2013-08-22 01:02:00,65.8,64.4,30.10,NW,316,0.0,0.0,95,0.00,,,0.00,meteohub,2013-08-22 05:02:00,
2013-08-22 01:07:00,65.8,64.6,30.10,NW,316,0.0,0.0,96,0.00,,,0.00,meteohub,2013-08-22 05:07:00,
2013-08-22 01:12:00,65.8,64.6,30.10,NW,316,0.0,0.0,96,0.00,,,0.00,meteohub,2013-08-22 05:12:00,
2013-08-22 01:17:00,65.7,64.4,30.10,NW,316,0.0,0.0,96,0.00,,,0.00,meteohub,2013-08-22 05:17:00,
2013-08-22 01:22:00,65.8,64.6,30.11,NW,316,0.0,0.0,96,0.00,,,0.00,meteohub,2013-08-22 05:22:00,
2013-08-22 01:27:00,65.7,64.4,30.11,NW,316,0.0,0.0,96,0.00,,,0.00,meteohub,2013-08-22 05:27:00,
2013-08-22 01:32:00,65.7,64.4,30.11,NW,316,0.0,0.0,96,0.00,,,0.00,meteohub,2013-08-22 05:32:00,
2013-08-22 01:37:00,65.7,64.4,30.10,NW,316,0.0,0.0,96,0.00,,,0.00,meteohub,2013-08-22 05:37:00,
2013-08-22 01:42:00,65.5,64.2,30.10,NW,316,0.0,0.0,96,0.00,,,0.00,meteohub,2013-08-22 05:42:00,
2013-08-22 01:47:00,65.5,64.2,30.09,NW,316,0.0,0.0,96,0.00,,,0.00,meteohub,2013-08-22 05:47:00,
2013-08-22 01:52:00,65.5,64.2,30.09,NW,316,0.0,0.0,96,0.00,,,0.00,meteohub,2013-08-22 05:52:00,
2013-08-22 01:57:00,65.3,64.0,30.09,NW,316,0.0,0.0,96,0.00,,,0.00,meteohub,2013-08-22 05:57:00,
2013-08-22 02:03:00,65.3,64.0,30.09,NW,316,0.0,0.0,96,0.00,,,0.00,meteohub,2013-08-22 06:03:00,
2013-08-22 02:08:00,65.5,64.2,30.09,NW,316,0.0,0.0,96,0.00,,,0.00,meteohub,2013-08-22 06:08:00,
2013-08-22 02:13:00,65.5,64.2,30.09,NW,316,0.0,0.0,96,0.00,,,0.00,meteohub,2013-08-22 06:13:00,
2013-08-22 02:19:00,65.7,64.4,30.08,NW,316,0.0,0.0,96,0.00,,,0.00,meteohub,2013-08-22 06:19:00,
2013-08-22 02:24:00,65.7,64.4,30.08,SSW,204,0.0,1.0,96,0.00,,,0.00,meteohub,2013-08-22 06:24:00,
2013-08-22 02:29:00,65.8,64.9,30.08,SSW,204,0.0,1.0,97,0.00,,,0.00,meteohub,2013-08-22 06:29:00,
2013-08-22 02:34:00,65.7,64.8,30.08,SSW,204,0.0,2.0,97,0.00,,,0.00,meteohub,2013-08-22 06:34:00,
2013-08-22 02:40:00,65.5,64.2,30.08,SSW,204,0.0,2.0,96,0.00,,,0.00,meteohub,2013-08-22 06:40:00,
2013-08-22 02:45:00,65.3,64.0,30.07,SSW,204,0.0,1.0,96,0.00,,,0.00,meteohub,2013-08-22 06:45:00,
2013-08-22 02:50:00,65.1,64.0,30.07,SSW,204,0.0,1.0,96,0.00,,,0.00,meteohub,2013-08-22 06:50:00,
2013-08-22 02:55:00,64.9,63.9,30.07,SSW,204,0.0,0.0,96,0.00,,,0.00,meteohub,2013-08-22 06:55:00,
2013-08-22 03:01:00,65.1,64.2,30.07,SSW,204,4.0,4.0,97,0.00,,,0.00,meteohub,2013-08-22 07:01:00,
2013-08-22 03:06:00,65.1,64.0,30.06,SSW,207,0.0,5.0,96,0.00,,,0.00,meteohub,2013-08-22 07:06:00,
2013-08-22 03:11:00,65.1,64.0,30.06,SSW,207,0.0,5.0,96,0.00,,,0.00,meteohub,2013-08-22 07:11:00,
2013-08-22 03:17:00,64.9,63.9,30.06,SSW,207,0.0,5.0,96,0.00,,,0.00,meteohub,2013-08-22 07:17:00,
2013-08-22 03:22:00,65.1,64.2,30.06,SSW,207,2.0,5.0,97,0.00,,,0.00,meteohub,2013-08-22 07:22:00,
2013-08-22 03:27:00,65.1,64.0,30.07,SSW,200,0.0,4.0,96,0.00,,,0.00,meteohub,2013-08-22 07:27:00,
2013-08-22 03:32:00,64.9,63.9,30.07,SSW,200,0.0,4.0,96,0.00,,,0.00,meteohub,2013-08-22 07:32:00,
2013-08-22 03:37:00,64.9,63.9,30.07,SSW,200,0.0,4.0,96,0.00,,,0.00,meteohub,2013-08-22 07:37:00,
2013-08-22 03:42:00,64.8,63.7,30.07,SSW,200,0.0,4.0,96,0.00,,,0.00,meteohub,2013-08-22 07:42:00,
2013-08-22 03:47:00,64.6,63.5,30.07,SSW,200,0.0,1.0,96,0.00,,,0.00,meteohub,2013-08-22 07:47:00,
2013-08-22 03:52:00,64.6,63.5,30.08,SSW,200,0.0,1.0,96,0.00,,,0.00,meteohub,2013-08-22 07:52:00,
2013-08-22 03:57:00,64.8,63.9,30.07,SSW,200,0.0,4.0,97,0.00,,,0.00,meteohub,2013-08-22 07:57:00,
2013-08-22 04:02:00,64.8,63.7,30.07,SSW,200,0.0,4.0,96,0.00,,,0.00,meteohub,2013-08-22 08:02:00,
2013-08-22 04:07:00,64.8,63.7,30.07,SSW,200,0.0,3.0,96,0.00,,,0.00,meteohub,2013-08-22 08:07:00,
2013-08-22 04:12:00,64.6,63.7,30.06,SSW,200,0.0,3.0,97,0.00,,,0.00,meteohub,2013-08-22 08:12:00,
2013-08-22 04:17:00,64.8,63.9,30.06,SSW,200,0.0,0.0,97,0.00,,,0.00,meteohub,2013-08-22 08:17:00,
2013-08-22 04:22:00,64.6,63.7,30.06,SSW,200,0.0,0.0,97,0.00,,,0.00,meteohub,2013-08-22 08:22:00,
2013-08-22 04:27:00,64.2,63.1,30.06,SSW,200,0.0,1.0,96,0.00,,,0.00,meteohub,2013-08-22 08:27:00,
2013-08-22 04:32:00,64.4,63.5,30.06,SSW,200,0.0,1.0,97,0.00,,,0.00,meteohub,2013-08-22 08:32:00,
2013-08-22 04:37:00,64.4,63.5,30.06,SSW,200,0.0,1.0,97,0.00,,,0.00,meteohub,2013-08-22 08:37:00,
2013-08-22 04:42:00,64.2,63.1,30.06,SSW,200,1.0,1.0,96,0.00,,,0.00,meteohub,2013-08-22 08:42:00,
2013-08-22 04:47:00,64.2,63.3,30.06,SSW,200,0.0,1.0,97,0.00,,,0.00,meteohub,2013-08-22 08:47:00,
2013-08-22 04:52:00,64.0,63.0,30.06,SSW,200,0.0,1.0,96,0.00,,,0.00,meteohub,2013-08-22 08:52:00,
2013-08-22 04:57:00,64.0,63.1,30.06,SSW,200,0.0,2.0,97,0.00,,,0.00,meteohub,2013-08-22 08:57:00,
2013-08-22 05:02:00,63.9,63.0,30.06,SSW,200,0.0,2.0,97,0.00,,,0.00,meteohub,2013-08-22 09:02:00,
2013-08-22 05:07:00,64.0,63.1,30.06,SSW,200,0.0,0.0,97,0.00,,,0.00,meteohub,2013-08-22 09:07:00,
2013-08-22 05:12:00,64.2,63.3,30.06,SSW,200,0.0,0.0,97,0.00,,,0.00,meteohub,2013-08-22 09:12:00,
2013-08-22 05:17:00,64.0,63.1,30.06,SSW,200,0.0,3.0,97,0.00,,,0.00,meteohub,2013-08-22 09:17:00,
2013-08-22 05:22:00,64.2,63.3,30.06,SSW,200,0.0,3.0,97,0.00,,,0.00,meteohub,2013-08-22 09:22:00,
2013-08-22 05:27:00,64.2,63.3,30.06,SSW,200,0.0,4.0,97,0.00,,,0.00,meteohub,2013-08-22 09:27:00,
2013-08-22 05:32:00,64.0,63.1,30.06,SSW,200,0.0,4.0,97,0.00,,,0.00,meteohub,2013-08-22 09:32:00,
2013-08-22 05:37:00,64.2,63.3,30.05,SSW,199,0.0,4.0,97,0.00,,,0.00,meteohub,2013-08-22 09:37:00,
2013-08-22 05:42:00,64.2,63.3,30.05,SW,222,0.0,4.0,97,0.00,,,0.00,meteohub,2013-08-22 09:42:00,
2013-08-22 05:47:00,64.2,63.3,30.06,SW,222,0.0,4.0,97,0.00,,,0.00,meteohub,2013-08-22 09:47:00,
2013-08-22 05:53:00,64.0,63.1,30.06,SW,222,0.0,4.0,97,0.00,,,0.00,meteohub,2013-08-22 09:53:00,
2013-08-22 05:58:00,64.0,63.1,30.06,SW,222,0.0,3.0,97,0.00,,,0.00,meteohub,2013-08-22 09:58:00,
2013-08-22 06:03:00,64.0,63.1,30.06,SSW,203,0.0,3.0,97,0.00,,,0.00,meteohub,2013-08-22 10:03:00,
2013-08-22 06:09:00,64.0,63.1,30.06,SSW,203,0.0,4.0,97,0.00,,,0.00,meteohub,2013-08-22 10:09:00,
2013-08-22 06:14:00,64.0,63.1,30.06,SSW,207,0.0,4.0,97,0.00,,,0.00,meteohub,2013-08-22 10:14:00,
2013-08-22 06:19:00,64.0,63.1,30.06,SSW,208,0.0,4.0,97,0.00,,,0.00,meteohub,2013-08-22 10:19:00,
2013-08-22 06:25:00,63.9,63.0,30.06,SSW,208,0.0,4.0,97,0.00,,,0.00,meteohub,2013-08-22 10:25:00,
2013-08-22 06:30:00,63.9,63.0,30.06,SSW,208,0.0,3.0,97,0.00,,,0.00,meteohub,2013-08-22 10:30:00,
2013-08-22 06:35:00,64.0,63.1,30.06,SSW,201,1.0,3.0,97,0.00,,,0.00,meteohub,2013-08-22 10:35:00,
2013-08-22 06:40:00,64.0,63.1,30.06,SW,222,2.0,3.0,97,0.00,,,0.00,meteohub,2013-08-22 10:40:00,
2013-08-22 06:46:00,63.9,63.0,30.06,SSW,207,0.0,7.0,97,0.00,,,0.00,meteohub,2013-08-22 10:46:00,
2013-08-22 08:27:00,65.3,64.4,30.08,SSW,207,1.0,6.0,97,0.00,,,0.00,meteohub,2013-08-22 12:27:00,
2013-08-22 08:32:00,65.5,64.6,30.08,SSW,202,4.0,6.0,97,0.00,,,0.00,meteohub,2013-08-22 12:32:00,
2013-08-22 08:38:00,65.5,64.6,30.08,SSW,196,3.0,6.0,97,0.00,,,0.00,meteohub,2013-08-22 12:38:00,
2013-08-22 08:43:00,65.7,64.8,30.08,SSW,197,2.0,6.0,97,0.00,,,0.00,meteohub,2013-08-22 12:43:00,
2013-08-22 08:48:00,65.8,64.9,30.08,SSW,211,2.0,7.0,97,0.00,,,0.00,meteohub,2013-08-22 12:48:00,
2013-08-22 08:53:00,66.2,65.3,30.08,SSW,207,8.0,8.0,97,0.00,,,0.00,meteohub,2013-08-22 12:53:00,
2013-08-22 08:59:00,66.4,65.1,30.08,SSW,198,3.0,8.0,96,0.00,,,0.00,meteohub,2013-08-22 12:59:00,
2013-08-22 09:04:00,66.9,65.7,30.08,SW,231,0.0,8.0,96,0.00,,,0.00,meteohub,2013-08-22 13:04:00,
2013-08-22 09:10:00,67.3,66.0,30.07,SSW,196,6.0,8.0,96,0.00,,,0.00,meteohub,2013-08-22 13:10:00,
2013-08-22 09:15:00,67.5,66.0,30.06,SSW,209,5.0,9.0,95,0.00,,,0.00,meteohub,2013-08-22 13:15:00,
2013-08-22 09:20:00,67.8,66.4,30.06,SSW,197,3.0,9.0,95,0.00,,,0.00,meteohub,2013-08-22 13:20:00,
2013-08-22 09:25:00,68.7,67.3,30.06,SSW,210,5.0,9.0,95,0.00,,,0.00,meteohub,2013-08-22 13:25:00,
2013-08-22 09:31:00,69.1,67.3,30.07,SE,145,1.0,9.0,94,0.00,,,0.00,meteohub,2013-08-22 13:31:00,
2013-08-22 09:36:00,69.3,67.1,30.07,SSW,192,5.0,7.0,93,0.00,,,0.00,meteohub,2013-08-22 13:36:00,
2013-08-22 09:41:00,69.6,67.8,30.07,South,178,2.0,7.0,94,0.00,,,0.00,meteohub,2013-08-22 13:41:00,
2013-08-22 09:47:00,70.0,67.5,30.07,WSW,242,0.0,6.0,92,0.00,,,0.00,meteohub,2013-08-22 13:47:00,
2013-08-22 09:52:00,70.2,67.5,30.07,SSW,200,2.0,6.0,91,0.00,,,0.00,meteohub,2013-08-22 13:52:00,
2013-08-22 09:57:00,70.3,67.3,30.07,SSW,197,0.0,5.0,90,0.00,,,0.00,meteohub,2013-08-22 13:57:00,
2013-08-22 10:02:00,70.9,67.8,30.07,SSW,195,4.0,5.0,90,0.00,,,0.00,meteohub,2013-08-22 14:02:00,
2013-08-22 10:07:00,71.2,67.8,30.07,SSW,195,0.0,5.0,89,0.00,,,0.00,meteohub,2013-08-22 14:07:00,
2013-08-22 10:12:00,71.4,68.4,30.08,SSW,195,0.0,5.0,90,0.00,,,0.00,meteohub,2013-08-22 14:12:00,
2013-08-22 10:18:00,72.0,68.2,30.08,SSW,195,0.0,5.0,88,0.00,,,0.00,meteohub,2013-08-22 14:18:00,
2013-08-22 10:23:00,72.1,68.4,30.08,SSW,195,0.0,5.0,88,0.00,,,0.00,meteohub,2013-08-22 14:23:00,
2013-08-22 10:28:00,72.5,68.7,30.08,SSW,195,0.0,1.0,88,0.00,,,0.00,meteohub,2013-08-22 14:28:00,
2013-08-22 10:33:00,72.9,69.1,30.08,SSW,195,0.0,2.0,88,0.00,,,0.00,meteohub,2013-08-22 14:33:00,
2013-08-22 10:39:00,73.0,69.3,30.08,NW,321,0.0,2.0,88,0.00,,,0.00,meteohub,2013-08-22 14:39:00,
2013-08-22 10:44:00,73.4,69.3,30.08,South,182,0.0,4.0,87,0.00,,,0.00,meteohub,2013-08-22 14:44:00,
2013-08-22 10:49:00,73.9,69.1,30.08,NE,39,0.0,4.0,85,0.00,,,0.00,meteohub,2013-08-22 14:49:00,
2013-08-22 10:55:00,74.7,69.8,30.08,South,189,1.0,4.0,85,0.00,,,0.00,meteohub,2013-08-22 14:55:00,
2013-08-22 11:00:00,75.6,69.6,30.07,ENE,76,0.0,6.0,82,0.00,,,0.00,meteohub,2013-08-22 15:00:00,
2013-08-22 11:05:00,75.7,69.1,30.07,NE,54,1.0,6.0,80,0.00,,,0.00,meteohub,2013-08-22 15:05:00,
2013-08-22 11:10:00,75.7,69.1,30.07,North,5,0.0,6.0,80,0.00,,,0.00,meteohub,2013-08-22 15:10:00,
2013-08-22 11:16:00,75.9,68.5,30.07,North,5,0.0,5.0,78,0.00,,,0.00,meteohub,2013-08-22 15:16:00,
2013-08-22 11:21:00,76.3,68.9,30.07,East,98,1.0,4.0,78,0.00,,,0.00,meteohub,2013-08-22 15:21:00,
2013-08-22 11:26:00,76.3,70.0,30.07,South,187,0.0,3.0,81,0.00,,,0.00,meteohub,2013-08-22 15:26:00,
2013-08-22 11:32:00,76.8,69.4,30.07,SSW,200,2.0,3.0,78,0.00,,,0.00,meteohub,2013-08-22 15:32:00,
2013-08-22 11:37:00,77.2,69.8,30.07,South,187,5.0,5.0,78,0.00,,,0.00,meteohub,2013-08-22 15:37:00,
2013-08-22 11:42:00,76.6,69.3,30.07,South,169,4.0,4.0,78,0.00,,,0.00,meteohub,2013-08-22 15:42:00,
2013-08-22 11:47:00,76.5,69.4,30.07,SSW,203,0.0,10.0,79,0.00,,,0.00,meteohub,2013-08-22 15:47:00,
2013-08-22 11:52:00,76.8,69.4,30.06,SSW,199,2.0,10.0,78,0.00,,,0.00,meteohub,2013-08-22 15:52:00,
2013-08-22 11:57:00,76.8,70.2,30.06,SSW,193,3.0,8.0,80,0.00,,,0.00,meteohub,2013-08-22 15:57:00,
2013-08-22 12:02:00,77.4,70.0,30.06,SSW,212,0.0,6.0,78,0.00,,,0.00,meteohub,2013-08-22 16:02:00,
2013-08-22 12:07:00,77.5,69.8,30.06,NE,36,0.0,6.0,77,0.00,,,0.00,meteohub,2013-08-22 16:07:00,
2013-08-22 12:12:00,77.5,69.8,30.06,SSW,205,0.0,6.0,77,0.00,,,0.00,meteohub,2013-08-22 16:12:00,
2013-08-22 12:18:00,77.4,70.0,30.06,SW,219,1.0,5.0,78,0.00,,,0.00,meteohub,2013-08-22 16:18:00,
2013-08-22 12:23:00,76.8,69.4,30.06,SSW,212,4.0,5.0,78,0.00,,,0.00,meteohub,2013-08-22 16:23:00,
2013-08-22 12:28:00,76.5,69.4,30.06,WSW,254,0.0,8.0,79,0.00,,,0.00,meteohub,2013-08-22 16:28:00,
2013-08-22 12:34:00,76.5,69.1,30.06,East,101,0.0,8.0,78,0.00,,,0.00,meteohub,2013-08-22 16:34:00,
2013-08-22 12:39:00,76.6,70.0,30.06,North,351,0.0,8.0,80,0.00,,,0.00,meteohub,2013-08-22 16:39:00,
2013-08-22 12:44:00,76.8,69.8,30.06,SSW,194,0.0,5.0,79,0.00,,,0.00,meteohub,2013-08-22 16:44:00,
2013-08-22 12:49:00,76.8,69.8,30.06,South,191,0.0,5.0,79,0.00,,,0.00,meteohub,2013-08-22 16:49:00,
2013-08-22 12:55:00,76.8,69.8,30.06,SSE,151,0.0,5.0,79,0.00,,,0.00,meteohub,2013-08-22 16:55:00,
2013-08-22 13:00:00,76.8,69.4,30.06,NNE,23,0.0,5.0,78,0.00,,,0.00,meteohub,2013-08-22 17:00:00,
2013-08-22 13:05:00,77.4,70.0,30.06,South,169,0.0,5.0,78,0.00,,,0.00,meteohub,2013-08-22 17:05:00,
2013-08-22 13:10:00,77.7,70.3,30.06,South,186,0.0,5.0,78,0.00,,,0.00,meteohub,2013-08-22 17:10:00,
2013-08-22 13:16:00,77.9,69.8,30.06,SW,229,0.0,6.0,76,0.00,,,0.00,meteohub,2013-08-22 17:16:00,
2013-08-22 13:21:00,77.9,70.5,30.05,SSW,192,0.0,6.0,78,0.00,,,0.00,meteohub,2013-08-22 17:21:00,
2013-08-22 13:26:00,78.3,71.2,30.05,NW,308,1.0,6.0,79,0.00,,,0.00,meteohub,2013-08-22 17:26:00,
2013-08-22 13:31:00,78.4,70.7,30.05,SSE,157,1.0,6.0,77,0.00,,,0.00,meteohub,2013-08-22 17:31:00,
2013-08-22 13:37:00,78.4,69.8,30.05,WSW,253,1.0,6.0,75,0.00,,,0.00,meteohub,2013-08-22 17:37:00,
2013-08-22 13:42:00,78.4,70.2,30.05,SSW,193,0.0,6.0,76,0.00,,,0.00,meteohub,2013-08-22 17:42:00,
2013-08-22 13:47:00,78.4,70.7,30.04,West,275,1.0,7.0,77,0.00,,,0.00,meteohub,2013-08-22 17:47:00,
2013-08-22 13:52:00,78.4,70.2,30.05,South,190,0.0,7.0,76,0.00,,,0.00,meteohub,2013-08-22 17:52:00,
2013-08-22 13:57:00,78.4,70.7,30.05,South,179,0.0,9.0,77,0.00,,,0.00,meteohub,2013-08-22 17:57:00,
2013-08-22 14:03:00,79.0,70.3,30.05,SSW,195,2.0,9.0,75,0.00,,,0.00,meteohub,2013-08-22 18:03:00,
2013-08-22 14:08:00,79.0,70.0,30.04,ENE,59,0.0,7.0,74,0.00,,,0.00,meteohub,2013-08-22 18:08:00,
2013-08-22 14:13:00,79.2,70.9,30.04,South,187,1.0,7.0,76,0.00,,,0.00,meteohub,2013-08-22 18:13:00,
2013-08-22 14:18:00,79.2,69.8,30.04,SSE,153,0.0,7.0,73,0.00,,,0.00,meteohub,2013-08-22 18:18:00,
2013-08-22 14:24:00,79.7,69.8,30.04,NNW,347,0.0,7.0,72,0.00,,,0.00,meteohub,2013-08-22 18:24:00,
2013-08-22 14:29:00,80.1,70.7,30.03,ENE,77,1.0,7.0,73,0.00,,,0.00,meteohub,2013-08-22 18:29:00,
2013-08-22 14:34:00,80.2,70.9,30.03,NNW,346,0.0,9.0,73,0.00,,,0.00,meteohub,2013-08-22 18:34:00,
2013-08-22 14:40:00,80.6,70.7,30.03,SSE,155,2.0,9.0,72,0.00,,,0.00,meteohub,2013-08-22 18:40:00,
2013-08-22 14:45:00,80.8,71.2,30.03,SSW,213,0.0,7.0,73,0.00,,,0.00,meteohub,2013-08-22 18:45:00,
2013-08-22 14:50:00,81.0,70.2,30.03,NE,53,2.0,7.0,70,0.00,,,0.00,meteohub,2013-08-22 18:50:00,
2013-08-22 14:55:00,81.1,70.0,30.03,NNE,25,1.0,7.0,69,0.00,,,0.00,meteohub,2013-08-22 18:55:00,
2013-08-22 15:01:00,81.5,70.3,30.03,SSW,207,2.0,6.0,69,0.00,,,0.00,meteohub,2013-08-22 19:01:00,
2013-08-22 15:06:00,81.7,70.9,30.03,NNE,21,1.0,6.0,70,0.00,,,0.00,meteohub,2013-08-22 19:06:00,
2013-08-22 15:11:00,81.7,71.4,30.03,SE,125,2.0,6.0,71,0.00,,,0.00,meteohub,2013-08-22 19:11:00,
2013-08-22 15:16:00,81.5,70.7,30.03,NNW,342,0.0,7.0,70,0.00,,,0.00,meteohub,2013-08-22 19:16:00,
2013-08-22 15:22:00,81.9,69.4,30.03,SSW,202,4.0,7.0,66,0.00,,,0.00,meteohub,2013-08-22 19:22:00,
2013-08-22 15:27:00,81.9,70.7,30.02,SSW,206,0.0,7.0,69,0.00,,,0.00,meteohub,2013-08-22 19:27:00,
2013-08-22 15:32:00,81.7,69.6,30.02,SSE,157,0.0,7.0,67,0.00,,,0.00,meteohub,2013-08-22 19:32:00,
2013-08-22 15:37:00,81.7,69.3,30.02,North,355,1.0,8.0,66,0.00,,,0.00,meteohub,2013-08-22 19:37:00,
2013-08-22 15:42:00,81.7,70.2,30.02,NNW,327,2.0,8.0,68,0.00,,,0.00,meteohub,2013-08-22 19:42:00,
2013-08-22 15:47:00,81.9,68.5,30.02,SW,225,2.0,8.0,64,0.00,,,0.00,meteohub,2013-08-22 19:47:00,
2013-08-22 15:52:00,81.7,69.6,30.02,North,355,0.0,8.0,67,0.00,,,0.00,meteohub,2013-08-22 19:52:00,
2013-08-22 15:57:00,81.5,68.5,30.02,NNW,346,0.0,5.0,65,0.00,,,0.00,meteohub,2013-08-22 19:57:00,
2013-08-22 16:02:00,81.7,69.6,30.02,NNE,17,4.0,5.0,67,0.00,,,0.00,meteohub,2013-08-22 20:02:00,
2013-08-22 16:07:00,81.7,70.2,30.02,NNW,327,5.0,5.0,68,0.00,,,0.00,meteohub,2013-08-22 20:07:00,
2013-08-22 16:13:00,81.7,69.3,30.02,North,5,0.0,5.0,66,0.00,,,0.00,meteohub,2013-08-22 20:13:00,
2013-08-22 16:18:00,81.7,69.3,30.02,NE,34,0.0,7.0,66,0.00,,,0.00,meteohub,2013-08-22 20:18:00,
2013-08-22 16:23:00,81.3,68.9,30.02,NW,321,3.0,7.0,66,0.00,,,0.00,meteohub,2013-08-22 20:23:00,
2013-08-22 16:28:00,81.3,68.9,30.01,NNW,343,2.0,8.0,66,0.00,,,0.00,meteohub,2013-08-22 20:28:00,
2013-08-22 16:34:00,81.3,68.4,30.02,North,355,2.0,8.0,65,0.00,,,0.00,meteohub,2013-08-22 20:34:00,
2013-08-22 16:39:00,81.1,68.2,30.02,NNE,26,2.0,8.0,65,0.00,,,0.00,meteohub,2013-08-22 20:39:00,
2013-08-22 16:44:00,80.8,68.4,30.02,North,350,0.0,7.0,66,0.00,,,0.00,meteohub,2013-08-22 20:44:00,
2013-08-22 16:50:00,80.4,68.0,30.02,NE,37,2.0,7.0,66,0.00,,,0.00,meteohub,2013-08-22 20:50:00,
2013-08-22 16:55:00,80.1,68.2,30.02,North,355,4.0,7.0,67,0.00,,,0.00,meteohub,2013-08-22 20:55:00,
2013-08-22 17:00:00,79.9,68.0,30.02,ENE,60,0.0,7.0,67,0.00,,,0.00,meteohub,2013-08-22 21:00:00,
2013-08-22 17:05:00,79.7,67.8,30.02,ENE,58,0.0,7.0,67,0.00,,,0.00,meteohub,2013-08-22 21:05:00,
2013-08-22 17:11:00,79.5,68.9,30.02,North,9,2.0,7.0,70,0.00,,,0.00,meteohub,2013-08-22 21:11:00,
2013-08-22 17:16:00,79.2,66.7,30.02,North,355,3.0,5.0,66,0.00,,,0.00,meteohub,2013-08-22 21:16:00,
2013-08-22 17:21:00,78.6,66.4,30.02,North,0,0.0,5.0,66,0.00,,,0.00,meteohub,2013-08-22 21:21:00,
2013-08-22 17:26:00,78.3,66.7,30.01,North,0,0.0,5.0,68,0.00,,,0.00,meteohub,2013-08-22 21:26:00,
2013-08-22 17:32:00,78.1,67.5,30.01,North,0,0.0,5.0,70,0.00,,,0.00,meteohub,2013-08-22 21:32:00,
2013-08-22 17:37:00,77.7,67.1,30.01,North,0,0.0,5.0,70,0.00,,,0.00,meteohub,2013-08-22 21:37:00,
2013-08-22 17:42:00,77.5,66.9,30.01,North,0,0.0,5.0,70,0.00,,,0.00,meteohub,2013-08-22 21:42:00,
2013-08-22 17:47:00,77.4,67.3,30.01,North,0,0.0,2.0,71,0.00,,,0.00,meteohub,2013-08-22 21:47:00,
2013-08-22 17:52:00,77.4,67.3,30.01,North,0,0.0,2.0,71,0.00,,,0.00,meteohub,2013-08-22 21:52:00,
2013-08-22 17:58:00,77.4,68.0,30.01,North,0,0.0,0.0,73,0.00,,,0.00,meteohub,2013-08-22 21:58:00,
2013-08-22 18:03:00,77.4,68.0,30.01,North,0,0.0,0.0,73,0.00,,,0.00,meteohub,2013-08-22 22:03:00,
2013-08-22 18:08:00,77.2,68.2,30.01,North,0,0.0,0.0,74,0.00,,,0.00,meteohub,2013-08-22 22:08:00,
2013-08-22 18:13:00,77.2,69.1,30.01,North,0,0.0,0.0,76,0.00,,,0.00,meteohub,2013-08-22 22:13:00,
2013-08-22 18:19:00,77.2,68.7,30.01,North,0,0.0,0.0,75,0.00,,,0.00,meteohub,2013-08-22 22:19:00,
2013-08-22 18:24:00,76.8,68.7,30.01,North,0,0.0,0.0,76,0.00,,,0.00,meteohub,2013-08-22 22:24:00,
2013-08-22 18:29:00,76.6,68.2,30.02,North,0,0.0,1.0,75,0.00,,,0.00,meteohub,2013-08-22 22:29:00,
2013-08-22 18:35:00,76.6,68.2,30.01,North,0,0.0,1.0,75,0.00,,,0.00,meteohub,2013-08-22 22:35:00,
2013-08-22 18:40:00,76.5,67.6,30.01,North,0,0.0,1.0,74,0.00,,,0.00,meteohub,2013-08-22 22:40:00,
2013-08-22 18:45:00,76.5,67.6,30.01,North,0,0.0,0.0,74,0.00,,,0.00,meteohub,2013-08-22 22:45:00,
2013-08-22 18:50:00,76.5,68.0,30.01,North,0,0.0,0.0,75,0.00,,,0.00,meteohub,2013-08-22 22:50:00,
2013-08-22 18:56:00,76.3,67.8,30.01,North,0,0.0,0.0,75,0.00,,,0.00,meteohub,2013-08-22 22:56:00,
2013-08-22 19:01:00,76.3,67.8,30.01,North,0,0.0,0.0,75,0.00,,,0.00,meteohub,2013-08-22 23:01:00,
2013-08-22 19:06:00,76.1,68.0,30.01,North,0,0.0,0.0,76,0.00,,,0.00,meteohub,2013-08-22 23:06:00,
2013-08-22 19:12:00,75.9,68.9,30.01,North,0,0.0,0.0,79,0.00,,,0.00,meteohub,2013-08-22 23:12:00,
2013-08-22 19:17:00,75.7,68.7,30.01,North,0,0.0,0.0,79,0.00,,,0.00,meteohub,2013-08-22 23:17:00,
2013-08-22 19:22:00,75.6,68.2,30.01,North,0,0.0,0.0,78,0.00,,,0.00,meteohub,2013-08-22 23:22:00,
2013-08-22 19:27:00,75.4,68.0,30.01,North,0,0.0,0.0,78,0.00,,,0.00,meteohub,2013-08-22 23:27:00,
2013-08-22 19:32:00,75.0,67.6,30.01,North,0,0.0,0.0,78,0.00,,,0.00,meteohub,2013-08-22 23:32:00,
2013-08-22 19:37:00,74.7,67.6,30.01,North,0,0.0,0.0,79,0.00,,,0.00,meteohub,2013-08-22 23:37:00,
2013-08-22 19:42:00,74.5,68.2,30.01,North,0,0.0,0.0,81,0.00,,,0.00,meteohub,2013-08-22 23:42:00,
2013-08-22 19:47:00,74.1,68.2,30.01,North,0,0.0,0.0,82,0.00,,,0.00,meteohub,2013-08-22 23:47:00,
2013-08-22 19:53:00,73.8,68.0,30.01,North,0,0.0,0.0,82,0.00,,,0.00,meteohub,2013-08-22 23:53:00,
2013-08-22 19:58:00,73.4,68.0,30.01,North,0,0.0,0.0,83,0.00,,,0.00,meteohub,2013-08-22 23:58:00,
2013-08-22 20:03:00,72.9,67.8,30.01,North,0,0.0,0.0,84,0.00,,,0.00,meteohub,2013-08-23 00:03:00,
2013-08-22 20:08:00,72.3,67.8,30.01,North,0,0.0,0.0,86,0.00,,,0.00,meteohub,2013-08-23 00:08:00,
2013-08-22 20:14:00,72.0,67.5,30.01,North,0,0.0,0.0,86,0.00,,,0.00,meteohub,2013-08-23 00:14:00,
2013-08-22 20:19:00,71.8,67.6,30.01,North,0,0.0,0.0,87,0.00,,,0.00,meteohub,2013-08-23 00:19:00,
2013-08-22 20:24:00,71.4,67.3,30.01,North,0,0.0,0.0,87,0.00,,,0.00,meteohub,2013-08-23 00:24:00,
2013-08-22 20:29:00,71.1,67.3,30.01,North,0,0.0,0.0,88,0.00,,,0.00,meteohub,2013-08-23 00:29:00,
2013-08-22 20:35:00,70.9,67.1,30.02,North,0,0.0,0.0,88,0.00,,,0.00,meteohub,2013-08-23 00:35:00,
2013-08-22 20:40:00,70.5,67.1,30.02,North,0,0.0,0.0,89,0.00,,,0.00,meteohub,2013-08-23 00:40:00,
2013-08-22 20:45:00,70.3,67.3,30.02,North,0,0.0,0.0,90,0.00,,,0.00,meteohub,2013-08-23 00:45:00,
2013-08-22 20:51:00,70.2,67.1,30.02,North,0,0.0,0.0,90,0.00,,,0.00,meteohub,2013-08-23 00:51:00,
2013-08-22 20:56:00,70.0,67.3,30.03,North,0,0.0,0.0,91,0.00,,,0.00,meteohub,2013-08-23 00:56:00,
2013-08-22 21:01:00,69.6,66.9,30.03,North,0,0.0,0.0,91,0.00,,,0.00,meteohub,2013-08-23 01:01:00,
2013-08-22 21:06:00,69.4,66.7,30.03,North,0,0.0,0.0,91,0.00,,,0.00,meteohub,2013-08-23 01:06:00,
2013-08-22 21:12:00,69.3,66.9,30.04,North,0,0.0,0.0,92,0.00,,,0.00,meteohub,2013-08-23 01:12:00,
2013-08-22 21:17:00,69.1,66.7,30.04,North,0,0.0,0.0,92,0.00,,,0.00,meteohub,2013-08-23 01:17:00,
2013-08-22 21:22:00,68.9,66.6,30.04,North,0,0.0,0.0,92,0.00,,,0.00,meteohub,2013-08-23 01:22:00,
2013-08-22 21:27:00,68.7,66.6,30.04,North,0,0.0,0.0,93,0.00,,,0.00,meteohub,2013-08-23 01:27:00,
2013-08-22 21:32:00,68.7,66.6,30.04,North,0,0.0,0.0,93,0.00,,,0.00,meteohub,2013-08-23 01:32:00,
2013-08-22 21:37:00,68.5,66.4,30.04,North,0,0.0,0.0,93,0.00,,,0.00,meteohub,2013-08-23 01:37:00,
2013-08-22 21:42:00,68.5,66.4,30.04,North,0,0.0,0.0,93,0.00,,,0.00,meteohub,2013-08-23 01:42:00,
2013-08-22 21:47:00,68.4,66.2,30.04,North,0,0.0,0.0,93,0.00,,,0.00,meteohub,2013-08-23 01:47:00,
2013-08-22 21:52:00,68.4,66.6,30.04,North,0,0.0,0.0,94,0.00,,,0.00,meteohub,2013-08-23 01:52:00,
2013-08-22 21:57:00,68.4,66.6,30.04,North,0,0.0,0.0,94,0.00,,,0.00,meteohub,2013-08-23 01:57:00,
2013-08-22 22:02:00,68.4,66.6,30.04,North,0,0.0,0.0,94,0.00,,,0.00,meteohub,2013-08-23 02:02:00,
2013-08-22 22:07:00,68.2,66.4,30.04,North,0,0.0,0.0,94,0.00,,,0.00,meteohub,2013-08-23 02:07:00,
2013-08-22 22:12:00,68.2,66.4,30.04,North,0,0.0,0.0,94,0.00,,,0.00,meteohub,2013-08-23 02:12:00,
2013-08-22 22:17:00,68.4,66.9,30.04,North,0,0.0,0.0,95,0.00,,,0.00,meteohub,2013-08-23 02:17:00,
2013-08-22 22:23:00,68.2,66.7,30.04,North,0,0.0,0.0,95,0.00,,,0.00,meteohub,2013-08-23 02:23:00,
2013-08-22 22:28:00,68.0,66.2,30.04,North,0,0.0,0.0,94,0.00,,,0.00,meteohub,2013-08-23 02:28:00,
2013-08-22 22:33:00,67.8,66.0,30.04,North,0,0.0,0.0,94,0.00,,,0.00,meteohub,2013-08-23 02:33:00,
2013-08-22 22:38:00,67.8,66.4,30.04,North,0,0.0,0.0,95,0.00,,,0.00,meteohub,2013-08-23 02:38:00,
2013-08-22 22:44:00,67.6,66.2,30.04,North,0,0.0,1.0,95,0.00,,,0.00,meteohub,2013-08-23 02:44:00,
2013-08-22 22:49:00,67.6,66.2,30.04,North,0,0.0,1.0,95,0.00,,,0.00,meteohub,2013-08-23 02:49:00,
2013-08-22 22:54:00,67.5,66.0,30.04,North,0,0.0,0.0,95,0.00,,,0.00,meteohub,2013-08-23 02:54:00,
2013-08-22 22:59:00,67.5,66.0,30.05,North,0,0.0,0.0,95,0.00,,,0.00,meteohub,2013-08-23 02:59:00,
2013-08-22 23:05:00,67.3,65.8,30.05,North,0,0.0,0.0,95,0.00,,,0.00,meteohub,2013-08-23 03:05:00,
2013-08-22 23:10:00,67.1,65.7,30.04,North,0,0.0,0.0,95,0.00,,,0.00,meteohub,2013-08-23 03:10:00,
2013-08-22 23:16:00,66.9,65.5,30.05,North,0,0.0,0.0,95,0.00,,,0.00,meteohub,2013-08-23 03:16:00,
2013-08-22 23:21:00,66.9,65.5,30.05,North,0,0.0,0.0,95,0.00,,,0.00,meteohub,2013-08-23 03:21:00,
2013-08-22 23:26:00,66.9,65.5,30.05,North,0,0.0,0.0,95,0.00,,,0.00,meteohub,2013-08-23 03:26:00,
2013-08-22 23:31:00,66.9,65.5,30.05,North,0,0.0,0.0,95,0.00,,,0.00,meteohub,2013-08-23 03:31:00,
2013-08-22 23:37:00,66.7,65.3,30.05,North,0,0.0,0.0,95,0.00,,,0.00,meteohub,2013-08-23 03:37:00,
2013-08-22 23:42:00,66.7,65.3,30.06,North,0,0.0,0.0,95,0.00,,,0.00,meteohub,2013-08-23 03:42:00,
2013-08-22 23:47:00,66.7,65.5,30.06,North,0,0.0,0.0,96,0.00,,,0.00,meteohub,2013-08-23 03:47:00,
2013-08-22 23:52:00,66.7,65.5,30.05,North,0,0.0,0.0,96,0.00,,,0.00,meteohub,2013-08-23 03:52:00,
2013-08-22 23:57:00,66.9,65.7,30.05,North,0,0.0,0.0,96,0.00,,,0.00,meteohub,2013-08-23 03:57:00,